Date String (YYYY-MM-DD hh:mm:ss) UTC,Instrument flags,absolute air pressure of the measurement (hPa),sample flow rate (lpm),inlet stack bypass flow (lpm),air temperature of the measurement (°C),ambient temperature measured by the external sensor (°C),aerosol sample conditioner tube jacket temperature (°C),OPC LED temperature (°C),internal box temperature (°C),relative humidity of the measurement (%),span deviation,mass concentration of particles derived from Lorenz-Mie calculation of OPC scattering (μg/m³),mass concentration of particles derived from Lorenz-Mie calculation of OPC scattering (μg/m³),mass concentration of particles derived from Lorenz-Mie calculation of OPC scattering (μg/m³)
DateTimeUTC,F1_M11,P_M11,Q1_M11,Q2_M11,T1_M11,T2_M11,T3_M11,T4_M11,T5_M11,U1_M11,ZSPAN_M11,X2_M11,X0_M11,X1_M11
2024-03-02 20:00:00,SystemResetWarning,0814.3,5.00,000.00,025.2,024.6,000.0,033.3,026.9,05.4,0000.0,0000.66,0003.85,0000.44
2024-03-02 20:01:00,SystemResetWarning,0814.3,5.01,000.00,025.3,024.6,000.0,033.3,026.9,05.4,0000.0,0000.65,0003.05,0000.44
2024-03-02 20:02:00,SystemResetWarning,0814.2,5.00,000.00,025.3,024.6,000.0,033.3,027.0,05.1,0000.0,0000.63,0002.52,0000.44
2024-03-02 20:03:00,SystemResetWarning,0814.2,5.00,000.00,025.3,024.6,000.0,033.3,027.0,05.1,0000.0,0000.61,0001.03,0000.44
2024-03-02 20:04:00,SystemResetWarning,0814.0,4.99,000.00,025.3,024.6,000.0,033.3,027.0,05.2,0000.0,0000.63,0001.20,0000.45
2024-03-02 20:05:00,SystemResetWarning,0814.1,4.99,000.00,025.3,024.6,000.0,033.4,027.0,05.3,0000.0,0000.57,0001.52,0000.45
2024-03-02 20:06:00,SystemResetWarning,0814.1,5.00,000.00,025.3,024.7,000.0,033.4,027.0,05.2,0000.0,0000.57,0001.58,0000.44
2024-03-02 20:07:00,SystemResetWarning,0814.1,5.02,000.00,025.3,024.7,000.0,033.4,027.0,05.3,0000.0,0000.59,0001.66,0000.43
2024-03-02 20:08:00,SystemResetWarning,0814.0,5.00,000.00,025.4,024.7,000.0,033.4,027.1,05.3,0000.0,0000.59,0001.68,0000.43
2024-03-02 20:09:00,SystemResetWarning,0814.0,4.98,000.00,025.4,024.7,000.0,033.4,027.1,05.2,0000.0,0000.58,0001.74,0000.43
2024-03-02 20:10:00,SystemResetWarning,0814.0,5.00,000.00,025.4,024.7,000.0,033.4,027.1,05.2,0000.0,0000.61,0001.78,0000.43
2024-03-02 20:11:00,SystemResetWarning,0813.9,5.00,000.00,025.4,024.7,000.0,033.5,027.1,05.1,0000.0,0000.61,0001.87,0000.43
2024-03-02 20:12:00,SystemResetWarning,0813.8,5.00,000.00,025.4,024.7,000.0,033.5,027.1,05.1,0000.0,0000.62,0002.12,0000.43
2024-03-02 20:13:00,SystemResetWarning,0813.7,5.00,000.00,025.4,024.7,000.0,033.5,027.1,05.2,0000.0,0000.63,0002.09,0000.43
2024-03-02 20:14:00,SystemResetWarning,0813.6,5.00,000.00,025.4,024.7,000.0,033.5,027.1,05.0,0000.0,0000.64,0002.11,0000.43
2024-03-02 20:15:00,SystemResetWarning,0813.6,5.00,000.00,025.4,024.7,000.0,033.5,027.1,05.0,0000.0,0000.62,0002.04,0000.43
2024-03-02 20:16:00,SystemResetWarning,0813.8,5.00,000.00,025.4,024.8,000.0,033.5,027.1,05.1,0000.0,0000.65,0001.68,0000.43
2024-03-02 20:17:00,SystemResetWarning,0813.6,4.99,000.00,025.5,024.8,000.0,033.5,027.1,05.0,0000.0,0000.64,0001.59,0000.43
2024-03-02 20:18:00,SystemResetWarning,0813.6,4.99,000.00,025.5,024.8,000.0,033.5,027.2,05.0,0000.0,0000.65,0001.55,0000.43
2024-03-02 20:19:00,SystemResetWarning,0813.6,4.99,000.00,025.5,024.8,000.0,033.6,027.2,05.0,0000.0,0000.66,0001.59,0000.43
2024-03-02 20:20:00,SystemResetWarning,0813.6,5.02,000.00,025.5,024.8,000.0,033.6,027.2,05.1,0000.0,0000.66,0002.24,0000.41
2024-03-02 20:21:00,SystemResetWarning,0813.6,5.00,000.00,025.5,024.8,000.0,033.6,027.2,05.0,0000.0,0000.64,0002.88,0000.41
2024-03-02 20:22:00,SystemResetWarning,0813.6,4.98,000.00,025.5,024.8,000.0,033.6,027.2,05.0,0000.0,0000.64,0002.83,0000.40
2024-03-02 20:23:00,SystemResetWarning,0813.5,5.00,000.00,025.5,024.8,000.0,033.6,027.2,05.1,0000.0,0000.65,0002.59,0000.40
2024-03-02 20:24:00,SystemResetWarning,0813.6,5.01,000.00,025.5,024.8,000.0,033.7,027.2,05.2,0000.0,0000.66,0002.78,0000.39
2024-03-02 20:25:00,SystemResetWarning,0813.5,5.01,000.00,025.5,024.8,000.0,033.7,027.2,05.1,0000.0,0000.66,0002.87,0000.38
2024-03-02 20:26:00,SystemResetWarning,0813.4,4.98,000.00,025.5,024.8,000.0,033.7,027.2,05.1,0000.0,0000.67,0002.89,0000.38
2024-03-02 20:27:00,SystemResetWarning,0813.5,4.99,000.00,025.5,024.8,000.0,033.7,027.2,05.0,0000.0,0000.63,0002.70,0000.37
2024-03-02 20:28:00,SystemResetWarning,0813.5,5.01,000.00,025.5,024.9,000.0,033.7,027.3,05.0,0000.0,0000.61,0002.65,0000.36
2024-03-02 20:29:00,SystemResetWarning,0813.5,5.01,000.00,025.6,024.9,000.0,033.7,027.2,05.1,0000.0,0000.57,0002.58,0000.35
2024-03-02 20:30:00,SystemResetWarning,0813.5,4.99,000.00,025.6,024.9,000.0,033.7,027.3,05.3,0000.0,0000.56,0002.57,0000.35
2024-03-02 20:31:00,SystemResetWarning,0813.4,4.99,000.00,025.6,024.9,000.0,033.7,027.3,05.2,0000.0,0000.57,0002.11,0000.35
2024-03-02 20:32:00,SystemResetWarning,0813.4,4.99,000.00,025.6,024.9,000.0,033.7,027.3,05.1,0000.0,0000.57,0001.25,0000.36
2024-03-02 20:33:00,SystemResetWarning,0813.4,5.01,000.00,025.6,024.9,000.0,033.7,027.3,05.2,0000.0,0000.56,0001.23,0000.35
2024-03-02 20:34:00,SystemResetWarning,0813.4,5.01,000.00,025.6,024.9,000.0,033.7,027.3,05.3,0000.0,0000.53,0001.22,0000.35
2024-03-02 20:35:00,SystemResetWarning,0813.3,5.00,000.00,025.6,024.9,000.0,033.8,027.4,05.2,0000.0,0000.51,0001.07,0000.35
2024-03-02 20:36:00,SystemResetWarning,0813.3,4.99,000.00,025.7,024.9,000.0,033.8,027.4,05.4,0000.0,0000.50,0001.02,0000.35
2024-03-02 20:37:00,SystemResetWarning,0813.3,5.00,000.00,025.7,024.9,000.0,033.8,027.4,05.3,0000.0,0000.50,0001.01,0000.35
2024-03-02 20:38:00,SystemResetWarning,0813.4,5.01,000.00,025.7,025.0,000.0,033.8,027.4,05.3,0000.0,0000.50,0001.00,0000.35
2024-03-02 20:39:00,SystemResetWarning,0813.3,5.00,000.00,025.7,025.0,000.0,033.8,027.4,05.1,0000.0,0000.51,0001.03,0000.36
2024-03-02 20:40:00,SystemResetWarning,0813.3,5.01,000.00,025.7,025.0,000.0,033.8,027.5,05.2,0000.0,0000.52,0001.04,0000.37
2024-03-02 20:41:00,SystemResetWarning,0813.3,4.99,000.00,025.7,025.0,000.0,033.8,027.4,05.3,0000.0,0000.56,0001.16,0000.37
2024-03-02 20:42:00,SystemResetWarning,0813.3,4.99,000.00,025.7,025.0,000.0,033.8,027.4,05.4,0000.0,0000.56,0001.23,0000.36
2024-03-02 20:43:00,SystemResetWarning,0813.2,5.01,000.00,025.7,025.0,000.0,033.9,027.5,05.4,0000.0,0000.57,0001.34,0000.36
2024-03-02 20:44:00,SystemResetWarning,0813.2,5.01,000.00,025.7,025.0,000.0,033.9,027.5,05.3,0000.0,0000.63,0001.73,0000.36
2024-03-02 20:45:00,SystemResetWarning,0813.2,5.00,000.00,025.8,025.0,000.0,033.9,027.5,05.2,0000.0,0000.64,0001.79,0000.36
2024-03-02 20:46:00,SystemResetWarning,0813.3,4.98,000.00,025.8,025.1,000.0,033.9,027.5,05.1,0000.0,0000.64,0001.77,0000.35
2024-03-02 20:47:00,SystemResetWarning,0813.3,5.01,000.00,025.8,025.1,000.0,033.9,027.5,05.0,0000.0,0000.69,0001.86,0000.35
2024-03-02 20:48:00,SystemResetWarning,0813.3,5.01,000.00,025.8,025.1,000.0,034.0,027.6,05.0,0000.0,0000.70,0001.95,0000.34
2024-03-02 20:49:00,SystemResetWarning,0813.3,4.99,000.00,025.8,025.1,000.0,034.0,027.5,04.8,0000.0,0000.76,0002.17,0000.34
2024-03-02 20:50:00,SystemResetWarning,0813.3,4.99,000.00,025.8,025.1,000.0,034.0,027.5,04.9,0000.0,0000.74,0002.14,0000.33
2024-03-02 20:51:00,SystemResetWarning,0813.2,4.99,000.00,025.8,025.1,000.0,034.0,027.5,04.9,0000.0,0000.74,0002.19,0000.33
2024-03-02 20:52:00,SystemResetWarning,0813.2,5.00,000.00,025.8,025.1,000.0,034.0,027.5,04.9,0000.0,0000.70,0002.19,0000.32
2024-03-02 20:53:00,SystemResetWarning,0813.1,5.00,000.00,025.8,025.1,000.0,034.0,027.6,05.1,0000.0,0000.68,0002.23,0000.32
2024-03-02 20:54:00,SystemResetWarning,0813.2,5.01,000.00,025.8,025.1,000.0,034.0,027.6,05.3,0000.0,0000.66,0002.12,0000.32
2024-03-02 20:55:00,SystemResetWarning,0813.1,5.01,000.00,025.8,025.1,000.0,034.0,027.6,05.2,0000.0,0000.60,0001.72,0000.31
2024-03-02 20:56:00,SystemResetWarning,0813.2,5.01,000.00,025.8,025.1,000.0,034.1,027.6,05.2,0000.0,0000.58,0001.63,0000.31
2024-03-02 20:57:00,SystemResetWarning,0813.2,4.99,000.00,025.9,025.1,000.0,034.1,027.6,05.2,0000.0,0000.60,0002.85,0000.31
2024-03-02 20:58:00,SystemResetWarning,0813.1,5.00,000.00,025.9,025.1,000.0,034.1,027.6,05.3,0000.0,0000.56,0002.97,0000.30
2024-03-02 20:59:00,SystemResetWarning,0813.2,4.99,000.00,025.9,025.1,000.0,034.1,027.6,05.1,0000.0,0000.58,0002.95,0000.30
